Location: Zagreb
(45.8000°N, 16.0000°E)
Time: 00:44:41
(UTC+01:00)

Tiros 1 - All Passes

Search period start: 26 January 2020 00:00
Search period end: 05 February 2020 00:00
Orbit: 630 x 664 km, 48.4° (Epoch: 25 January)

Date Brightness Start Highest point End Pass type
(mag) Time Alt. Az. Time Alt. Az. Time Alt. Az.
26 Jan - 10:46:56 10° SSE 10:48:59 13° SE 10:51:04 10° ESE daylight
26 Jan - 12:25:51 10° SW 12:30:23 51° SSE 12:34:59 10° ENE daylight
26 Jan - 14:07:51 10° W 14:12:34 70° N 14:17:20 10° ENE daylight
26 Jan - 15:50:20 10° WNW 15:55:04 69° N 15:59:52 10° E daylight
26 Jan - 17:32:38 10° WNW 17:37:17 55° SSW 17:41:58 10° SE visible
26 Jan - 19:16:13 10° WSW 19:18:46 14° SW 19:21:18 10° SSW visible
27 Jan - 11:10:43 10° SSW 11:14:34 26° SE 11:18:29 10° E daylight
27 Jan - 12:51:40 10° WSW 12:56:22 84° SSE 13:01:08 10° ENE daylight
27 Jan - 14:34:05 10° W 14:38:47 63° N 14:43:31 10° E daylight
27 Jan - 16:16:27 10° WNW 16:21:14 90° SSW 16:26:01 10° ESE daylight
27 Jan - 17:58:57 10° W 18:03:07 30° SW 18:07:18 10° SSE visible
28 Jan - 09:57:23 10° SSE 09:59:00 12° SE 10:00:38 10° ESE daylight
28 Jan - 11:35:52 10° SW 11:40:21 48° SSE 11:44:54 10° ENE daylight
28 Jan - 13:17:48 10° W 13:22:30 72° N 13:27:15 10° ENE daylight
28 Jan - 15:00:17 10° WNW 15:05:00 68° N 15:09:46 10° E daylight
28 Jan - 16:42:34 10° WNW 16:47:15 58° SSW 16:51:57 10° SE daylight
28 Jan - 18:25:58 10° W 18:28:45 15° SW 18:31:33 10° S visible
29 Jan - 10:20:50 10° SSW 10:24:34 24° SE 10:28:20 10° E daylight
29 Jan - 12:01:39 10° WSW 12:06:19 80° SSE 12:11:04 10° ENE daylight
29 Jan - 13:44:02 10° W 13:48:42 63° N 13:53:26 10° E daylight
29 Jan - 15:26:25 10° WNW 15:31:09 87° NNE 15:35:57 10° ESE daylight
29 Jan - 17:08:52 10° W 17:13:06 32° SW 17:17:20 10° SSE daylight
30 Jan - 09:08:04 10° SE 09:09:01 11° SE 09:09:59 10° ESE daylight
30 Jan - 10:45:54 10° SW 10:50:19 45° SSE 10:54:49 10° ENE daylight
30 Jan - 12:27:44 10° W 12:32:25 74° NNW 12:37:10 10° ENE daylight
30 Jan - 14:10:14 10° WNW 14:14:56 67° N 14:19:41 10° E daylight
30 Jan - 15:52:31 10° WNW 15:57:12 61° SSW 16:01:54 10° SE daylight
30 Jan - 17:35:45 10° W 17:38:45 17° SW 17:41:46 10° S visible
31 Jan - 09:30:57 10° S 09:34:33 23° SE 09:38:12 10° E daylight
31 Jan - 11:11:37 10° WSW 11:16:16 77° SSE 11:20:58 10° ENE daylight
31 Jan - 12:53:58 10° W 12:58:38 63° N 13:03:20 10° E daylight
31 Jan - 14:36:21 10° WNW 14:41:06 85° NNE 14:45:52 10° ESE daylight
31 Jan - 16:18:46 10° W 16:23:04 34° SW 16:27:22 10° SSE daylight
01 Feb - 09:55:55 10° SW 10:00:18 42° SSE 10:04:43 10° ENE daylight
01 Feb - 11:37:41 10° W 11:42:21 76° NNW 11:47:05 10° ENE daylight
01 Feb - 13:20:11 10° WNW 13:24:51 66° N 13:29:35 10° E daylight
01 Feb - 15:02:28 10° WNW 15:07:09 64° SSW 15:11:52 10° SE daylight
01 Feb - 16:45:33 10° W 16:48:44 18° SW 16:51:56 10° S daylight
02 Feb - 08:41:06 10° S 08:44:33 21° SE 08:48:02 10° E daylight
02 Feb - 10:21:35 10° WSW 10:26:13 73° SSE 10:30:54 10° ENE daylight
02 Feb - 12:03:55 10° W 12:08:34 63° N 12:13:16 10° ENE daylight
02 Feb - 13:46:18 10° WNW 13:51:02 82° NNE 13:55:48 10° ESE daylight
02 Feb - 15:28:42 10° W 15:33:02 36° SW 15:37:23 10° SSE daylight
03 Feb - 09:05:57 10° SW 09:10:16 40° SSE 09:14:38 10° ENE daylight
03 Feb - 10:47:38 10° WSW 10:52:18 78° NNW 10:57:01 10° ENE daylight
03 Feb - 12:30:08 10° WNW 12:34:47 65° N 12:39:30 10° E daylight
03 Feb - 14:12:25 10° WNW 14:17:06 68° SSW 14:21:49 10° ESE daylight
03 Feb - 15:55:23 10° W 15:58:44 19° SW 16:02:05 10° S daylight
04 Feb - 07:51:15 10° S 07:54:33 19° SE 07:57:52 10° E daylight
04 Feb - 09:31:34 10° WSW 09:36:10 70° SSE 09:40:50 10° ENE daylight
04 Feb - 11:13:51 10° W 11:18:29 64° N 11:23:11 10° ENE daylight
04 Feb - 12:56:16 10° WNW 13:00:58 79° NNE 13:05:43 10° ESE daylight
04 Feb - 14:38:37 10° WNW 14:43:00 39° SSW 14:47:24 10° SE daylight
